Flag for Slovakia Weather past 2 weeks in Košice, Slovakia

Now
72 °F

Clear.


Feels Like: 74 °F
Forecast: 64 / 87 °F
Wind: 2 mph from North

Location: Kosice - Barca

Current Time: Aug 4, 2015 at 12:20:23 AM

Latest Report: Aug 3, 2015 at 11:30 PM


Visibility: 10 mi

Pressure: 30.07 "Hg

Humidity: 73%

Dew point: 63 °F

Location of KošiceLocation

Historic Weather in Košice — Graph

°F

Košice temperature yesterday

Maximum temperature yesterday: 79 °F (at 5:00 PM)
Minimum temperature yesterday: 68 °F (at 1:00 AM)
Average temperature yesterday: 71 °F

Past Weeks' High & Low Weather Summary

 TemperatureHumidityPressure
High93 °F (Jul 23, 1:30 PM)100% (Jul 26, 2:00 AM)30.15 "Hg (Jul 26, 2:00 AM)
Low52 °F (Aug 1, 2:30 AM)28% (Aug 1, 4:00 PM)29.71 "Hg (Jul 25, 5:00 PM)
Average71 °F68%29.94 "Hg
* Reported Jul 19 11:00 PM — Aug 3 11:00 PM, Košice, Weather by CustomWeather, © 2015

Note: Actual official high and low records may vary slightly from our data, if they occured in-between our weather recording intervals... More about our weather records

Advertising

Košice weather history for previous 24 hours

 ConditionsComfort  
Time TempWeatherWind HumidityBarometerVisibility
11:00 PM
Mon, Aug 3
72 °FClear.3 mph73%30.07 "Hg10 mi
10:30 PM72 °FClear.7 mph73%30.07 "Hg10 mi
10:00 PM73 °FClear.7 mph69%30.07 "Hg10 mi
9:30 PM73 °FClear.7 mph69%30.07 "Hg10 mi
9:00 PM73 °FSunny.7 mph69%30.07 "Hg10 mi
8:30 PM75 °FSunny.6 mph69%30.07 "Hg10 mi
8:00 PM75 °FSunny.7 mph65%30.07 "Hg10 mi
7:30 PM77 °FSunny.6 mph65%30.07 "Hg10 mi
7:00 PM77 °FSunny.7 mph65%30.07 "Hg10 mi
6:30 PM79 °FSunny.10 mph61%30.07 "Hg10 mi
6:00 PM79 °FSunny.10 mph61%30.07 "Hg10 mi
5:30 PM77 °FSunny.12 mph65%30.07 "Hg10 mi
5:00 PM79 °FSunny.10 mph58%30.07 "Hg10 mi
4:30 PM77 °FSunny.12 mph61%30.09 "Hg10 mi
4:00 PM75 °FSunny.9 mph74%30.09 "Hg10 mi
3:30 PM72 °FPassing clouds.7 mph83%30.09 "HgN/A
3:00 PM72 °FScattered clouds.8 mph83%30.09 "HgN/A
2:30 PM70 °FLight rain. Broken clouds.8 mph88%30.12 "HgN/A
2:00 PM70 °FLight rain. Broken clouds.7 mph83%30.12 "HgN/A
1:30 PM70 °FBroken clouds.7 mph83%30.12 "HgN/A
1:00 PM70 °FLight rain. Broken clouds.8 mph83%30.12 "HgN/A
12:30 PM68 °FLight rain. Broken clouds.8 mph88%30.15 "HgN/A
12:00 PM68 °FLight rain. Broken clouds.3 mph88%30.15 "HgN/A
11:30 AM68 °FLight rain. Broken clouds.3 mph88%30.15 "HgN/A
11:00 AM70 °FLight rain. Broken clouds.3 mph78%30.15 "HgN/A
10:30 AM70 °FLight rain. Broken clouds.3 mph73%30.15 "HgN/A
10:00 AM70 °FLight rain. Broken clouds.6 mph73%30.12 "HgN/A
9:30 AM70 °FLight rain. Scattered clouds.5 mph73%30.12 "HgN/A
9:00 AM70 °FScattered clouds.7 mph73%30.12 "HgN/A
8:30 AM70 °FLight rain. Passing clouds.5 mph78%30.12 "HgN/A
8:00 AM70 °FLight rain. Clear.6 mph73%30.09 "HgN/A
7:30 AM70 °FSunny.6 mph73%30.09 "Hg10 mi
7:00 AM70 °FSunny.6 mph73%30.09 "Hg10 mi
6:00 AM68 °FPassing clouds.6 mph73%30.09 "HgN/A
5:30 AM68 °FClear.7 mph73%30.09 "Hg10 mi
5:00 AM68 °FClear.7 mph73%30.09 "Hg10 mi
4:30 AM68 °FClear.6 mph73%30.09 "Hg10 mi
4:00 AM68 °FClear.6 mph73%30.09 "Hg10 mi
3:30 AM68 °FClear.5 mph73%30.09 "Hg10 mi
3:00 AM70 °FClear.6 mph69%30.09 "Hg10 mi
2:30 AM68 °FClear.3 mph73%30.09 "Hg10 mi
2:00 AM70 °FClear.5 mph69%30.12 "Hg10 mi
1:30 AM68 °FClear.6 mph73%30.12 "Hg10 mi
1:00 AM68 °FClear.6 mph73%30.09 "Hg10 mi
12:30 AM70 °FPassing clouds.3 mph69%30.09 "HgN/A
12:00 AM70 °FClear.6 mph69%30.09 "Hg10 mi
Weather by CustomWeather, © 2015

See weather overviewHow to use our weather pages